CAPE
11 0 0 1 8 5 9 25 9 0 0 0 1 0 0 0 0 0 0 0 0 0 0 0 0 0 0 0 0 0 0 0 0 0 0 0 0 0 0 0 0 0 0 0
27 14 0 0 6 12 13 18 13 0 0 3 2 1 1 0 0 0 0 0 0 0 0 0 0 0 0 0 0 0 0 0 0 0 0 0 0 0 0 0 0 0 0 0
32 22 8 0 8 8 13 8 12 1 0 1 0 13 7 1 0 0 0 0 0 0 0 0 0 0 0 0 0 0 0 0 0 0 0 0 0 0 0 0 0 0 0 0
31 30 27 0 0 1 8 1 15 25 8 0 1 2 17 7 0 0 0 0 0 0 0 0 0 0 0 0 0 0 0 0 0 0 0 0 0 0 0 0 0 0 0 0
38 50 63 36 14 11 7 5 24 21 21 3 18 0 16 8 1 1 0 0 0 0 0 0 0 0 0 0 0 0 0 0 0 0 0 0 0 0 0 0 0 0 0 0
49 54 55 66 40 21 11 2 0 2 2 28 26 19 13 5 9 3 6 1 0 0 0 0 0 0 0 0 0 0 0 0 0 0 0 0 0 0 0 0 0 0 0 0
61 43 57 69 72 45 35 7 19 24 3 1 4 31 10 28 23 7 27 36 12 0 0 0 0 0 0 0 0 0 0 0 0 0 0 0 0 0 0 0 0 0 0 0
43 51 54 71 99 88 50 24 40 26 3 17 3 15 7 1 3 9 19 3 5 7 0 0 1 0 0 0 0 0 0 0 0 0 0 0 0 0 0 0 0 0 0 0
35 47 45 60 51 104 88 44 76 64 24 1 3 1 0 0 1 0 4 7 5 1 0 0 0 1 0 0 0 0 0 0 0 0 0 0 0 0 0 0 0 0 0 0
40 65 55 86 96 108 83 26 85 70 18 6 1 8 5 8 24 2 0 4 15 25 6 2 0 0 0 0 0 0 0 0 0 0 0 0 0 0 0 0 0 0 0 0
77 73 71 65 92 110 103 1 89 59 36 10 23 9 2 0 6 1 1 0 0 21 6 1 0 0 0 0 0 0 0 0 0 0 0 0 0 0 0 0 0 0 0 0
115 103 118 118 110 132 158 14 69 94 82 25 6 0 14 26 5 14 17 19 1 4 3 13 8 10 3 0 0 0 0 0 0 0 0 0 0 0 0 0 0 0 0 0
109 141 165 163 156 161 182 44 44 71 62 44 42 1 0 0 0 0 25 0 0 0 4 5 5 2 22 7 0 1 0 0 0 0 0 0 0 0 0 0 0 0 0 0
163 160 167 168 163 140 181 81 25 64 34 1 0 0 2 0 3 0 6 0 0 3 33 20 0 3 19 3 5 31 5 0 0 0 0 0 0 0 0 0 0 0 0 0
153 241 183 204 174 212 198 72 40 56 26 0 1 1 0 0 19 0 0 8 8 27 35 32 1 18 38 12 3 29 1 0 0 0 0 0 0 0 0 0 0 0 0 0
83 44 101 92 135 93 47 11 6 11 54 20 1 0 0 0 0 1 11 0 0 23 40 26 13 0 16 22 21 0 0 0 0 0 0 0 0 0 0 0 0 0 0 0
180 136 70 31 21 26 19 0 47 78 51 10 1 0 0 0 0 0 0 8 43 14 3 8 13 24 30 23 13 17 0 0 1 0 0 0 0 0 0 0 0 0 0 0
161 197 139 46 29 28 9 0 9 23 85 9 0 0 2 0 0 0 0 0 35 80 36 25 30 2 24 29 10 1 0 0 0 0 0 0 0 0 0 0 0 0 0 0
157 137 41 18 4 8 2 0 8 18 9 0 0 0 0 1 22 4 43 53 22 10 5 5 15 5 54 5 0 0 1 0 0 0 0 0 0 0 0 0 0 0 0 0
90 35 5 0 0 29 23 26 18 10 16 1 2 0 0 6 0 1 0 45 25 5 0 0 18 8 0 0 0 6 0 0 0 0 0 0 0 0 0 0 0 0 0 0
15 16 0 0 53 25 11 1 3 1 3 0 0 0 0 0 0 0 12 0 3 17 0 17 1 0 0 0 0 0 0 0 0 0 0 0 0 0 0 0 0 0 0 0
12 16 26 68 7 1 4 0 1 1 0 0 0 0 0 0 3 10 8 11 4 0 0 6 17 0 0 0 0 0 0 0 0 0 0 0 0 0 0 0 0 0 0 0
28 3 0 4 1 5 2 0 2 0 0 113 38 11 122 28 22 13 9 6 0 0 0 0 0 0 0 0 0 0 0 0 0 0 0 0 0 0 0 0 0 0 0 0
1 0 0 1 0 0 0 0 0 5 7 60 87 31 38 6 6 1 36 4 3 1 0 0 0 0 0 6 61 80 8 8 4 1 0 0 0 0 0 0 0 0 0 0
0 1 0 0 0 12 94 46 46 76 64 61 11 22 0 1 0 0 0 4 0 0 0 2 0 0 0 0 0 0 0 0 0 0 0 0 0 0 0 0 0 0 0 0
0 1 0 0 5 1 0 0 0 4 13 10 3 9 12 2 2 6 0 0 0 0 0 0 0 0 0 0 0 0 0 0 0 0 0 0 0 0 0 0 0 0 0 0
0 0 0 0 0 0 0 1 3 19 4 0 0 9 0 12 18 5 2 0 0 0 0 0 0 0 0 0 0 0 0 0 0 0 0 0 0 0 0 0 0 0 0 0
CIN
-6 -1 -0 -1 -12 -13 -25 -2 -0 -0 -0 -0 -0 -2 -0 -0 -0 -0 -0 -0 -0 -0 -0 -0 -0 -0 -0 -0 -0 -0 -0 -0 -0 -0 -0 -0 -0 -0 -0 -0 -0 -0 -0 -0
-8 -13 -0 -0 -13 -13 -3 -0 -3 -0 -0 -4 -9 -5 -2 -0 -0 -0 -0 -0 -0 -0 -0 -0 -0 -0 -0 -0 -0 -0 -0 -0 -0 -0 -0 -0 -0 -0 -0 -0 -0 -0 -0 -0
-5 -12 -18 -0 -14 -20 -6 -1 -2 -4 -0 -0 -0 -1 -4 -3 -0 -0 -0 -0 -0 -0 -0 -0 -0 -0 -0 -0 -0 -0 -0 -0 -0 -0 -0 -0 -0 -0 -0 -0 -0 -0 -0 -0
-2 -7 -5 -0 -1 -3 -8 -0 -0 -7 -4 -0 -0 -27 -3 -4 -4 -0 -0 -0 -0 -0 -0 -0 -0 -0 -0 -0 -0 -0 -0 -0 -0 -0 -0 -0 -0 -0 -0 -0 -0 -0 -0 -0
-3 -3 -1 -7 -13 -21 -0 -0 -0 -1 -0 -4 -12 -0 -2 -16 -4 -3 -0 -0 -0 -0 -0 -0 -0 -0 -0 -0 -0 -0 -0 -0 -0 -0 -0 -0 -0 -0 -0 -0 -0 -0 -0 -0
-1 -4 -3 -4 -5 -13 -1 -0 -0 -6 -0 -0 -1 -0 -4 -4 -5 -10 -15 -4 -0 -0 -0 -0 -0 -0 -0 -0 -0 -0 -0 -0 -0 -0 -0 -0 -0 -0 -0 -0 -0 -0 -0 -0
-1 -6 -4 -5 -3 -6 -3 -5 -3 -0 -0 -0 -0 -0 -13 -2 -5 -4 -1 -4 -17 -0 -0 -0 -0 -0 -0 -0 -0 -0 -0 -0 -0 -0 -0 -0 -0 -0 -0 -0 -0 -0 -0 -0
-0 -4 -3 -2 -2 -3 -1 -6 -0 -0 -0 -3 -5 -1 -12 -0 -0 -17 -2 -46 -25 -6 -0 -0 -9 -0 -0 -0 -0 -0 -0 -0 -0 -0 -0 -0 -0 -0 -0 -0 -0 -0 -0 -0
-1 -3 -4 -5 -8 -5 -2 -3 -3 -0 -0 -1 -0 -0 -0 -0 -0 -0 -8 -31 -26 -4 -0 -0 -0 -5 -0 -0 -0 -0 -0 -0 -0 -0 -0 -0 -0 -0 -0 -0 -0 -0 -0 -0
-1 -0 -1 -2 -2 -3 -3 -1 -4 -0 -0 -0 -0 -0 -1 -1 -0 -0 -0 -9 -0 -23 -20 -0 -0 -0 -0 -0 -0 -0 -0 -0 -0 -0 -0 -0 -0 -0 -0 -0 -0 -0 -0 -0
-0 -0 -1 -3 -4 -4 -3 -1 -2 -1 -0 -0 -0 -0 -0 -0 -0 -1 -0 -0 -0 -4 -4 -0 -0 -0 -0 -0 -0 -0 -0 -0 -0 -0 -0 -0 -0 -0 -0 -0 -0 -0 -0 -0
-0 -1 -2 -2 -2 -2 -3 -0 -1 -3 -0 -0 -3 -0 -18 -1 -2 -1 -1 -0 -0 -0 -0 -4 -2 -0 -11 -0 -0 -0 -0 -0 -0 -0 -0 -0 -0 -0 -0 -0 -0 -0 -0 -0
-4 -3 -2 -2 -1 -2 -2 -3 -1 -2 -0 -0 -0 -0 -0 -0 -0 -0 -0 -0 -0 -0 -1 -0 -0 -3 -2 -2 -0 -0 -0 -0 -0 -0 -0 -0 -0 -0 -0 -0 -0 -0 -0 -0
-0 -3 -2 -2 -2 -4 -2 -1 -6 -1 -0 -6 -0 -0 -0 -0 -55 -16 -26 -0 -0 -1 -3 -0 -0 -0 -14 -10 -7 -1 -21 -0 -0 -0 -0 -0 -0 -0 -0 -0 -0 -0 -0 -0
-3 -1 -2 -1 -3 -2 -3 -9 -5 -3 -0 -0 -0 -3 -0 -0 -20 -9 -0 -5 -0 -0 -0 -0 -1 -0 -0 -0 -1 -2 -16 -0 -0 -0 -0 -0 -0 -0 -0 -0 -0 -0 -0 -0
-6 -9 -8 -7 -8 -10 -2 -0 -1 -1 -0 -0 -5 -0 -0 -0 -0 -40 -44 -0 -0 -1 -0 -0 -3 -0 -1 -0 -0 -0 -0 -0 -0 -0 -0 -0 -0 -0 -0 -0 -0 -0 -0 -0
-0 -5 -9 -13 -13 -5 -0 -0 -4 -23 -12 -0 -4 -1 -0 -0 -0 -0 -1 -18 -7 -28 -0 -1 -5 -2 -1 -0 -0 -1 -0 -0 -85 -0 -0 -0 -0 -0 -0 -0 -0 -0 -0 -0
-0 -0 -7 -9 -4 -1 -0 -0 -24 -12 -15 -0 -0 -0 -1 -0 -0 -0 -0 -0 -10 -1 -1 -2 -0 -0 -0 -0 -2 -0 -0 -0 -0 -0 -0 -0 -0 -0 -0 -0 -0 -0 -0 -0
-0 -5 -7 -1 -0 -0 -0 -0 -24 -11 -0 -0 -0 -0 -0 -18 -6 -20 -2 -2 -2 -2 -1 -0 -0 -2 -1 -18 -0 -0 -2 -0 -0 -0 -0 -0 -0 -0 -0 -0 -0 -0 -0 -0
-7 -3 -0 -0 -0 -11 -5 -3 -0 -0 -0 -0 -0 -0 -0 -13 -0 -2 -0 -5 -2 -2 -0 -0 -0 -1 -0 -3 -0 -8 -0 -0 -0 -0 -0 -0 -0 -0 -0 -0 -0 -0 -0 -0
-5 -0 -0 -1 -12 -5 -3 -0 -1 -4 -3 -0 -0 -0 -0 -0 -0 -0 -12 -0 -16 -2 -0 -2 -1 -0 -0 -0 -0 -0 -0 -0 -0 -0 -0 -0 -0 -0 -0 -0 -0 -0 -0 -0
-13 -20 -1 -1 -1 -1 -1 -0 -2 -0 -0 -0 -0 -0 -0 -0 -1 -2 -13 -6 -11 -0 -0 -17 -9 -0 -0 -0 -0 -0 -0 -0 -0 -0 -0 -0 -0 -0 -0 -0 -0 -0 -0 -0
-6 -5 -0 -2 -3 -0 -0 -0 -0 -0 -0 -28 -73 -82 -23 -16 -14 -2 -3 -5 -1 -0 -0 -0 -0 -0 -0 -0 -0 -0 -0 -0 -0 -0 -0 -0 -0 -0 -0 -0 -0 -0 -0 -0
-1 -0 -0 -0 -1 -0 -0 -0 -18 -19 -31 -16 -15 -7 -16 -47 -3 -5 -2 -13 -29 -7 -0 -0 -0 -0 -0 -103 -25 -30 -64 -116 -146 -16 -0 -0 -12 -0 -0 -0 -0 -0 -0 -0
-0 -1 -0 -0 -0 -26 -11 -22 -27 -22 -24 -14 -4 -4 -12 -2 -0 -0 -0 -5 -0 -0 -0 -5 -0 -0 -0 -0 -0 -0 -0 -0 -0 -0 -0 -0 -0 -0 -0 -0 -0 -0 -0 -0
-0 -0 -0 -0 -9 -14 -0 -0 -0 -47 -55 -24 -20 -4 -3 -63 -7 -7 -0 -7 -0 -0 -0 -0 -0 -0 -0 -0 -0 -0 -0 -0 -0 -0 -0 -0 -0 -0 -0 -0 -0 -0 -0 -0
-0 -0 -0 -0 -0 -0 -0 -1 -37 -38 -45 -0 -0 -1 -0 -14 -4 -0 -5 -0 -0 -0 -0 -0 -0 -0 -0 -0 -0 -0 -0 -0 -0 -0 -0 -0 -0 -0 -0 -0 -0 -0 -0 -0
Wind_Speed
31 30 31 31 30 29 25 28 33 24 18 26 29 34 28 31 33 20 25 24 25 25 17 9 10 17 23 19 17 25 24 30 39 36 27 26 29 33 35 34 32 32 29 29
34 32 31 30 28 26 28 31 34 25 22 38 38 36 35 37 37 35 27 25 22 26 26 25 13 11 20 21 18 22 21 31 37 33 31 29 35 36 36 40 38 38 32 29
33 32 31 30 27 25 26 32 36 32 32 34 38 40 43 41 31 37 38 36 29 31 30 30 27 19 19 21 23 25 25 32 37 40 30 24 31 36 39 41 44 43 48 37
34 33 31 29 27 25 26 32 37 33 38 43 42 39 39 44 47 38 32 40 39 36 37 32 34 30 25 23 23 24 27 39 41 44 45 37 38 36 36 48 50 44 41 50
36 34 32 31 30 27 32 36 37 35 42 37 44 46 52 48 45 43 42 43 37 36 45 40 35 37 30 28 21 26 28 39 39 49 45 46 49 47 46 44 49 54 54 56
36 35 33 32 30 29 34 32 35 41 40 45 49 49 51 50 48 50 45 44 44 44 43 37 41 44 44 38 32 25 30 35 41 51 42 45 54 58 55 49 47 42 57 50
36 34 32 31 30 29 32 35 36 42 55 51 50 51 47 55 53 54 50 50 53 48 40 41 44 46 47 46 41 26 28 31 36 44 36 51 45 33 34 45 47 40 52 44
34 32 31 30 30 30 32 32 36 41 52 47 47 49 54 52 49 55 56 55 49 36 41 52 55 52 52 55 47 42 30 30 39 44 46 52 51 37 31 34 45 39 44 43
35 35 34 33 33 34 34 36 35 39 52 58 51 54 47 49 53 56 55 48 45 44 41 46 58 61 52 47 45 44 40 37 44 42 49 55 38 31 38 34 59 33 35 35
36 36 35 35 35 34 33 36 32 39 50 48 46 49 48 43 43 45 43 44 46 42 51 55 58 64 50 62 53 41 45 49 58 54 57 54 42 27 19 34 30 20 24 22
38 38 38 37 36 35 32 37 33 37 46 47 42 44 51 51 51 51 42 40 42 41 51 53 53 57 55 59 57 52 45 47 56 54 61 72 37 36 47 31 28 26 25 22
38 38 38 37 37 35 33 39 34 33 39 42 35 44 48 50 48 50 46 46 41 29 39 47 50 57 47 56 69 53 56 49 48 44 57 52 39 36 34 36 44 36 31 29
40 39 38 38 37 37 33 36 34 34 40 45 41 45 45 42 45 46 57 55 46 45 35 37 39 54 53 68 67 55 57 45 53 48 55 50 42 41 40 36 39 40 37 35
39 38 34 34 35 36 34 35 36 35 33 38 38 33 38 41 43 45 47 60 52 51 44 50 47 52 41 59 61 61 57 48 58 60 59 49 48 43 40 39 38 42 42 38
38 31 28 29 30 29 28 32 35 34 37 32 31 33 40 39 39 42 47 51 55 55 57 52 55 48 48 54 55 61 58 58 56 59 49 52 50 46 48 49 45 42 44 46
33 33 31 31 32 27 24 32 34 31 32 36 38 36 43 39 36 36 37 43 52 55 55 56 51 49 51 59 64 58 58 57 53 59 52 47 43 40 42 44 40 41 44 42
33 31 30 28 27 23 24 21 23 17 15 34 35 37 39 31 34 38 42 40 41 47 57 61 61 58 52 63 70 52 47 51 56 58 60 59 56 52 47 47 47 44 43 43
31 30 30 26 24 22 26 24 36 22 19 20 27 32 35 24 31 33 31 40 43 48 52 53 54 58 56 68 60 59 54 55 56 57 58 59 60 57 55 52 51 54 54 50
28 29 27 22 20 23 25 20 19 27 29 33 32 30 28 25 28 22 23 24 38 40 50 56 53 62 59 51 58 60 54 52 51 53 61 61 63 63 59 57 56 56 54 52
25 22 20 24 21 22 17 16 20 21 23 27 39 34 41 22 24 26 26 28 30 40 42 41 54 67 64 63 62 58 55 53 51 52 56 55 57 57 57 56 57 56 53 49
19 22 23 20 18 16 20 23 23 21 27 26 32 33 47 36 43 42 32 35 36 38 38 40 48 56 58 59 60 60 59 59 57 55 55 59 59 58 55 54 54 54 56 57
15 19 18 19 21 21 23 22 19 22 25 22 25 28 24 32 27 32 31 36 33 38 37 39 42 44 30 40 47 59 63 65 63 60 59 58 54 52 55 55 55 53 49 49
17 21 21 20 21 22 20 20 19 19 17 19 16 15 18 20 21 27 29 30 31 34 33 24 26 22 26 26 47 53 48 49 55 57 55 52 54 51 51 51 51 50 47 46
19 19 18 19 16 17 16 22 27 26 23 32 16 14 13 16 23 27 28 25 30 17 35 38 31 24 21 42 46 46 49 52 49 49 50 49 49 51 48 45 51 48 48 45
15 16 17 9 16 30 27 28 31 33 29 32 31 30 16 14 20 24 28 32 35 33 34 35 34 33 30 30 29 33 37 37 37 38 38 40 46 48 48 45 47 45 45 43
16 17 12 24 31 37 37 37 37 35 36 33 29 30 31 20 28 31 31 27 15 34 33 34 34 32 31 31 32 34 36 40 43 43 42 44 47 49 48 46 42 40 35 32
20 30 11 39 37 37 38 36 37 27 33 37 34 35 33 34 29 30 30 30 38 33 34 35 35 36 36 36 36 37 38 37 38 39 39 41 41 40 33 30 27 25 24 22
Wind_Direction
300 302 304 305 305 306 302 293 283 296 288 267 274 270 275 279 278 285 288 293 292 292 300 303 297 294 294 300 289 267 270 270 256 261 270 267 260 254 248 247 249 252 259 255
296 298 300 302 303 304 297 287 282 292 277 267 267 275 272 271 273 275 285 282 283 287 285 293 293 267 296 289 282 279 272 264 256 259 263 265 255 254 252 250 253 249 256 260
295 294 296 298 297 299 294 286 282 279 273 274 272 269 268 270 275 270 272 277 278 279 281 279 287 293 297 291 279 275 274 266 256 251 261 267 257 255 250 247 246 248 243 253
292 292 291 292 292 291 288 280 278 281 276 268 268 271 273 268 267 268 274 268 269 272 275 274 274 278 286 290 287 280 270 262 260 258 258 264 264 261 255 245 246 252 256 248
291 291 290 288 286 286 278 276 277 280 275 278 268 264 265 267 269 264 265 266 269 269 267 270 275 274 275 279 284 274 271 262 264 255 260 262 258 257 254 253 249 246 247 246
290 289 286 284 282 278 278 277 277 276 276 272 269 266 266 268 267 265 267 267 268 266 269 274 273 273 273 277 276 269 269 265 261 255 265 265 255 247 251 256 257 260 242 250
287 285 284 282 278 273 274 276 278 272 269 267 270 268 272 265 264 267 267 265 264 267 278 280 276 272 270 269 268 272 269 266 265 261 265 254 259 272 267 259 261 261 261 270
285 284 282 280 277 274 272 274 271 271 269 269 269 270 267 270 272 267 266 263 267 280 274 269 266 265 264 260 262 261 262 264 262 259 258 260 259 266 269 269 266 269 268 272
281 279 279 277 276 273 272 271 269 270 268 264 268 268 270 268 268 269 268 266 266 267 267 265 258 255 259 262 263 255 255 259 259 262 258 256 270 275 269 273 261 279 277 275
279 277 276 276 276 274 273 272 269 268 268 268 265 263 264 267 268 268 274 269 262 257 256 258 257 255 258 255 257 261 248 249 252 256 257 261 264 282 290 266 279 303 301 285
278 274 272 273 273 273 273 273 270 266 268 269 269 266 262 262 262 263 269 281 260 256 252 253 256 258 256 256 256 255 255 250 251 255 255 255 268 267 260 276 288 294 300 304
277 274 271 271 271 272 273 272 272 271 269 272 274 268 265 263 263 264 262 259 265 273 262 258 258 256 261 256 253 254 254 251 250 253 256 262 279 275 275 272 272 279 286 291
272 272 271 270 271 270 270 271 271 272 274 273 271 267 267 268 265 266 259 258 261 262 267 278 271 259 258 254 255 258 254 255 257 261 260 264 271 275 274 278 276 279 284 287
274 274 275 273 272 271 271 269 266 265 275 275 276 277 271 270 266 264 261 259 262 263 267 264 267 266 275 259 259 256 257 259 255 259 260 267 268 272 277 277 278 278 280 285
277 281 278 277 276 275 274 272 267 265 261 280 283 282 273 274 272 265 263 261 260 256 257 259 260 264 271 271 268 257 255 258 258 259 269 264 267 269 272 275 278 280 280 281
280 278 276 277 274 276 277 274 270 265 262 274 278 282 274 275 276 270 266 264 260 256 256 258 262 263 265 266 266 262 259 260 264 264 269 275 278 279 275 274 279 281 279 279
277 278 277 280 278 275 269 279 287 282 253 268 279 281 277 276 274 271 267 266 265 260 257 256 258 259 260 262 262 269 270 265 263 265 267 269 270 272 279 279 278 280 282 284
279 279 278 284 284 283 273 270 262 288 277 282 280 285 284 289 276 273 272 267 266 264 263 261 260 261 259 259 264 262 264 265 265 266 267 269 270 274 275 277 278 276 277 279
282 279 281 290 285 281 281 287 279 271 272 273 274 277 295 291 284 280 284 278 272 271 264 261 260 256 255 259 260 263 266 265 268 268 268 269 271 271 273 273 274 275 276 276
280 284 285 278 283 287 298 293 283 277 274 273 269 273 268 292 282 282 293 294 280 273 273 275 263 261 261 262 263 263 262 264 269 270 269 271 271 271 273 272 272 274 274 277
279 271 272 284 294 292 286 280 277 280 278 280 278 272 262 268 265 272 286 283 281 283 280 278 272 270 266 260 258 259 261 263 264 266 271 271 272 273 274 275 275 275 275 272
279 278 283 283 280 280 278 281 285 283 285 289 288 283 281 275 280 278 284 278 279 280 287 284 282 278 273 274 268 258 262 263 262 263 266 271 273 273 273 274 275 276 278 275
276 270 271 273 273 273 278 280 285 277 316 307 308 300 290 283 286 281 280 282 286 289 288 273 249 251 244 244 240 255 266 271 266 267 268 270 272 272 273 274 273 273 274 274
265 265 272 273 280 282 274 278 274 279 292 260 315 294 300 304 291 277 283 290 287 279 231 242 254 253 244 250 256 252 258 266 269 270 271 270 270 271 272 274 271 272 272 273
272 269 277 251 271 270 275 274 266 263 281 268 273 281 295 308 299 279 270 249 242 240 257 272 300 296 305 289 282 273 269 275 279 281 278 273 271 271 270 272 271 271 269 269
270 275 275 277 262 244 245 246 250 271 276 281 285 278 278 296 267 236 218 215 239 277 292 299 296 283 283 285 290 292 287 284 281 280 279 277 273 269 270 271 272 271 269 270
250 209 265 236 239 238 247 257 257 286 276 258 272 252 246 257 217 213 216 223 249 296 299 297 302 298 299 300 294 292 294 302 294 285 282 280 278 271 269 269 272 269 267 266